Regional Weather Roundup
Issued by NWS

Home | Current Version | Previous Version | Text Only | Print | Product List | Glossary On
Versions: 1 2 3 4 5 6 7 8 9 10 11 12 13 14 15 16 17 18 19 20 21 22 23 24 25 26 27 28 29 30 31 32 33 34 35 36 37 38 39 40 41 42 43 44 45 46 47 48 49 50
161
ASUS44 KJAN 290710
RWRMS

MISSISSIPPI HOURLY WEATHER ROUNDUP
NATIONAL WEATHER SERVICE JACKSON MS
200 AM CDT SUN MAR 29 2015

NOTE: "FAIR: INDICATES FEW OR NO CLOUDS BELOW 12,000 FEET WITH NO
SIGNIFICANT WEATHER AND/OR OBSTRUCTIONS TO VISIBILITY.

MSZ001>002-007>008-010>013-018>021-025>028-034>036-290800-
NORTHWEST MISSISSIPPI

CITY           SKY/WX    TMP DP  RH WIND       PRES   REMARKS
CLARKSDALE     FAIR      37  32  81 E6        30.30S WCI  33
CLEVELAND      FAIR      39  34  83 E7        30.29R WCI  34
GREENWOOD      CLOUDY    40  29  64 E6        30.30S
GREENVILLE     CLOUDY    42  33  70 E7        30.28R
OLIVE BRANCH   CLEAR     34  32  93 CALM      30.30F
OXFORD         FAIR      32  28  86 CALM      30.31S
TUNICA         SUNNY     36  32  87 E5        30.31S WCI  32
$$

MSZ003>006-009-014>017-022>024-029>033-037>039-290800-
NORTHEAST MISSISSIPPI

CITY           SKY/WX    TMP DP  RH WIND       PRES   REMARKS
COLUMBUS AFB   PTCLDY    37  31  81 CALM      30.31S
CORINTH        FAIR      32  28  86 CALM      30.32S
GOLDN TRIANGLE MOCLDY    39  30  70 CALM      30.31S
STARKVILLE     CLOUDY    37  34  87 CALM      30.32S
TUPELO         CLEAR     37  30  75 E5        30.31F WCI  33
$$

MSZ040-058-290800-
CENTRAL MISSISSIPPI

CITY           SKY/WX    TMP DP  RH WIND       PRES   REMARKS
JACKSON INTL   CLOUDY    43  31  62 E9        30.28F
JACKSON HAWKNS CLOUDY    43  32  65 SE7       30.28F
MERIDIAN KEY   PTCLDY    40  32  73 CALM      30.31F
MERIDIAN NAS   NOT AVBL
RAYMOND        FAIR      43  39  87 E8        30.27S
VICKSBURG      LGT RAIN  48  34  58 SE12      30.26S
$$

MSZ059>079-290800-
SOUTH MISSISSIPPI

CITY           SKY/WX    TMP DP  RH WIND       PRES   REMARKS
BROOKHAVEN     CLOUDY    46  36  66 CALM      30.28S
HATTIESBURG    CLEAR     44  33  65 CALM      30.30F
MCCOMB         CLEAR     48  37  65 E7        30.25S
NATCHEZ        CLOUDY    52  37  58 E9        30.23S
PINE BELT      CLEAR     41  30  65 E3        30.30S
$$

MSZ080>082-290800-
COASTAL MISSISSIPPI

CITY           SKY/WX    TMP DP  RH WIND       PRES   REMARKS
BILOXI         CLEAR     49  37  62 E13       30.27F
PASCAGOULA     CLEAR     46  36  68 NE6       30.29F
GULFPORT       CLEAR     50  39  66 NE9       30.27S
$$



USA.gov is the U.S. government's official web portal to all federal, state and local government web resources and services.